カタログに戻る

STARLINK-37467

運用中通信SSO
NORAD 68855·PAYLOAD·🇺🇸 United States

打ち上げ Apr 26, 2026 から Vandenberg Space Force Base

Loading…

次のパス (今後24時間)

TLE

最新Source: CelesTrak SupGP

元期: Sep 14, 2026, 20:57 UTC

1 68855C 26094S   26257.87340278  .00021337  00000+0  66236-3 0  2572
2 68855  97.2836 271.1077 0001615  83.2011  45.0510 15.33428099    12

AllMySatでSTARLINK-37467をリアルタイム追跡

Download on the App Store